FM-5

Last updated on Tue Oct 08 2024 00:02:38 GMT+0000 (Coordinated Universal Time)

1 35493U 09034A 24281.38105064 -.00000189 00000+0 00000+0 0 9991 2 35493 0.0305 264.2880 0000758 222.2078 301.0857 1.00271361 40444
UTC large
Height (km)
Speed (km/s)
/
Latitude / Longitude
Inclination (degrees)
Orbital Period (minutes)
Azimuth
Elevation
Range (km)
Doppler Factor

Next 0 passes for location: London (51.5072 / 0.1276)

Sorry there are no passes over London.